Location: Marciaso
(44.1500°N, 10.0833°E)
Time: 10:30:48
(UTC+00:00)

Daily predictions for brighter satellites

Satellite Brightness Start Highest point End
(mag) Time Altitude Azimuth Time Altitude Azimuth Time Altitude Azimuth
USA 276 2.5 19:14:19 10° WNW 19:17:27 57° NNE 19:20:33 10° ESE
SAR-Lupe-1 4.0 19:20:39 10° NNE 19:24:15 87° E 19:27:50 10° SSW
SAR-Lupe-4 3.5 19:22:18 10° NNE 19:25:55 79° ESE 19:29:28 10° S
Cosmos 1633 2.5 19:24:31 10° S 19:28:07 89° W 19:31:45 10° N
BREEZE-M DEB (TANK) 3.0 19:26:45 10° SW 19:29:51 65° SE 19:39:24 10° ENE
Cosmos 1680 Rocket 4.3 19:29:02 10° SSE 19:33:35 31° E 19:38:09 10° NE
Cosmos 1076 Rocket 3.6 19:30:52 10° S 19:35:12 87° W 19:39:36 10° N
Resurs 01 Rocket 1.9 19:31:46 10° SSE 19:36:06 54° ENE 19:40:27 10° N
Cosmos 1689 Rocket 4.3 19:35:20 10° N 19:37:44 27° WNW 19:40:08 10° SW
SL-16 R/B 2.6 19:36:04 10° NNW 19:41:36 50° ENE 19:46:27 13° SE
Cosmos 1151 Rocket 4.3 19:38:30 10° NNE 19:42:07 25° ENE 19:44:57 14° ESE
Terra 3.9 19:40:52 10° E 19:43:08 13° ENE 19:45:25 10° NNE
ATLAS 5 CENTAUR R/B 4.4 19:41:57 10° N 19:44:42 14° NNE 19:47:39 10° ENE
Meteor 2-3 Rocket 3.9 19:40:28 10° S 19:45:59 57° E 19:51:36 10° NNE
SPOT 3 Rocket 3.8 19:41:43 10° SSE 19:46:50 58° ENE 19:51:58 10° N
NOSS 2-1 (E) 4.1 19:44:22 10° SSE 19:46:57 21° ESE 19:49:30 10° ENE
Cosmos 332 Rocket 3.8 19:43:23 10° NNW 19:48:18 82° ENE 19:52:56 12° SSE
CZ-2C R/B 4.3 19:46:40 10° NNE 19:50:46 34° E 19:54:30 12° SSE
Cosmos 1933 3.3 19:49:20 10° N 19:53:22 66° E 19:56:51 13° SSE
Cosmos 1766 Rocket 4.5 19:50:48 14° SE 19:53:50 30° E 19:57:40 10° NNE
Cosmos 1271 Rocket 2.9 19:50:42 10° N 19:54:39 57° ENE 19:57:44 16° SSE
Gbstr 26 Del rocket 2.6 19:51:39 10° WNW 19:55:23 85° NNE 19:58:12 18° ESE
OBJECT-B 3.6 19:54:13 10° SW 19:56:20 16° W 19:58:28 10° NW
SPOT 5 4.1 19:57:34 15° ESE 19:59:56 23° ENE 20:03:25 10° NNE
IGS 5A 3.5 19:56:09 10° S 20:00:18 81° WSW 20:04:28 10° NNW
Cosmos 2098 Rocket 3.9 19:57:33 10° SSW 20:00:37 41° WNW 20:04:19 10° N
ARIANE 5 R/B 3.8 19:58:58 17° ESE 20:01:34 29° ENE 20:05:23 10° N
Meteor 2-19 Rocket 4.4 19:55:47 10° S 20:01:50 87° E 20:07:56 10° N
Cosmos 2195 Rocket 4.4 19:58:15 10° S 20:04:19 74° E 20:10:26 10° NNE
Ariane Rocket 3.7 20:01:02 10° S 20:05:57 52° W 20:10:55 10° NNW
Landsat 7 3.9 20:02:50 11° S 20:07:26 81° WSW 20:12:13 10° NNW
Cosmos 1782 2.9 20:05:21 10° N 20:09:19 58° E 20:11:44 22° SSE
Cosmos 2082 Rocket 4.4 20:07:34 10° WSW 20:12:25 29° NW 20:17:19 10° N
Cosmos 304 Rocket 4.2 20:09:05 10° NNW 20:13:49 61° WSW 20:17:46 14° S
Cosmos 220 Rocket 4.3 20:12:00 10° NNW 20:16:17 54° ENE 20:18:36 25° SE
ATLAS 3B R/B 3.8 20:13:58 10° NW 20:20:35 41° WSW 20:27:19 10° S
Cosmos 2360 Rocket 2.7 20:15:14 10° NNW 20:20:40 47° ENE 20:23:55 23° ESE
MetOp-B 4.2 20:18:47 15° S 20:23:14 80° WSW 20:28:38 10° NNW
Cosmos 1092 Rocket 4.2 20:19:22 10° SSW 20:25:37 74° W 20:31:59 10° N
Cosmos 2151 4.5 20:26:44 10° SW 20:30:40 36° WNW 20:34:39 10° N
NOSS 2-1 (C) 2.6 20:27:44 10° SSW 20:31:04 80° SE 20:34:23 10° NE
ISS -1.6 20:28:59 10° W 20:31:13 17° SW 20:32:13 15° SSW
Cosmos 2026 Rocket 4.1 20:28:17 10° SSW 20:34:37 78° W 20:40:55 10° N
ERS-2 4.3 20:31:39 10° N 20:34:44 26° WNW 20:37:48 10° SW
Cosmos 2084 3.5 20:32:34 10° SW 20:36:38 73° NW 20:40:47 10° NE
COSMOS 2455 3.5 20:34:50 26° SE 20:36:50 33° ESE 20:42:07 10° NE
Cosmos 1833 4.4 20:33:10 16° S 20:37:43 52° ESE 20:43:18 10° NE
NOSS 2-1 (D) 2.8 20:35:29 10° SW 20:38:50 82° NW 20:42:09 10° NE
Cosmos 1812 2.7 20:35:33 10° N 20:39:24 63° E 20:40:31 41° SE
GP-B 3.2 20:36:36 10° N 20:41:03 74° W 20:44:01 21° SSW
Cosmos 2333 Rocket 3.2 20:36:32 10° N 20:41:43 35° NE 20:44:24 23° ESE
SPOT 1/Viking Rocket 4.0 20:38:27 18° S 20:42:14 60° W 20:47:25 10° NNW
ERS-1 Rocket 3.0 20:40:25 31° SE 20:42:45 64° ENE 20:47:43 10° N
BREEZE-M DEB (TANK) 4.3 20:39:39 10° WNW 20:43:31 60° SSW 20:49:45 24° SE
USA 245 3.9 20:42:07 23° S 20:45:01 64° WSW 20:49:00 10° NNW
SL-27 R/B 2.3 20:44:42 40° S 20:45:52 76° ESE 20:49:28 10° NNE
Okean 3 Rocket 3.8 20:48:05 18° SSW 20:51:21 69° W 20:55:54 10° N
Cosmos 1408 Rocket 3.5 20:50:55 41° SSE 20:52:14 63° E 20:56:31 10° NNE
Meteor 2-14 Rocket 4.4 20:48:52 19° S 20:53:22 84° E 20:59:32 10° N
USA 276 3.8 20:50:50 10° W 20:53:10 23° SW 20:53:10 23° SW
Cosmos 2237 Rocket 4.4 20:50:58 10° N 20:53:55 14° NE 20:56:51 10° ENE
Cosmos 2056 Rocket 3.5 20:48:38 10° NNW 20:54:00 87° WSW 20:56:16 35° SSE
Cosmos 2322 Rocket 2.5 20:49:28 10° NNW 20:55:01 59° WSW 20:57:55 28° S
Cosmos 1743 Rocket 4.2 20:55:46 36° ESE 20:56:06 37° E 21:00:11 10° NNE
CARTOSAT-1 4.0 20:59:31 31° SSW 21:01:21 55° W 21:05:37 10° NNW
Meteor 1-10 Rocket 4.1 20:59:36 10° N 21:05:11 78° E 21:07:16 40° SSE
Spot 2 Rocket 4.0 21:03:04 27° SSW 21:05:42 56° W 21:10:45 10° NNW
Cosmos 2219 Rocket 2.7 21:07:13 10° NNW 21:12:39 48° ENE 21:14:26 36° ESE
Resurs 01 Rocket 4.2 21:10:17 10° SW 21:12:55 15° W 21:15:34 10° NW
BREEZE M DEB (TANK) 4.0 21:11:27 10° WSW 21:15:30 79° SSE 21:43:25 10° ENE
Cosmos 1515 Rocket 3.6 21:15:17 10° NNW 21:19:43 74° W 21:20:37 54° SSW
Terra 1.8 21:19:00 50° S 21:20:14 81° WSW 21:25:01 10° NNW
Cosmos 2266 Rocket 3.9 21:19:57 38° S 21:22:28 78° E 21:28:44 10° N
Cosmos 1553 Rocket 4.4 21:17:12 10° NNW 21:23:07 55° W 21:26:24 26° SSW
Cosmos 2285 Rocket 4.3 21:18:03 10° NNW 21:24:14 55° ENE 21:26:17 39° ESE
SL-16 R/B 3.8 21:20:47 10° NW 21:25:21 26° WSW 21:28:20 17° SW
Cosmos 2315 Rocket 4.1 21:22:48 10° N 21:29:05 62° E 21:30:56 45° SE
IRIDIUM 103 4.4 21:24:23 10° N 21:29:33 56° E 21:30:18 51° ESE
ATLAS 5 CENTAUR R/B 3.0 21:25:17 10° NNW 21:30:34 46° NE 21:33:05 31° E
Cosmos 2333 4.1 21:26:17 10° NNW 21:31:55 87° WSW 21:33:17 54° SSE
Cosmos 494 Rocket 4.4 21:32:48 42° E 21:32:48 42° E 21:37:19 10° NNE
Cosmos 2228 Rocket 3.1 21:30:47 10° N 21:35:11 64° E 21:35:16 64° E
SPOT 5 3.7 21:36:48 31° SW 21:37:50 35° W 21:41:53 10° NNW
ARIANE 5 R/B 4.1 21:36:31 24° SW 21:37:57 29° W 21:41:50 10° NW
COSMOS 2428 2.8 21:34:35 10° NNW 21:40:16 64° ENE 21:41:31 51° ESE
Cosmos 883 Rocket 4.4 21:37:39 10° N 21:43:56 87° W 21:45:47 49° S
NOSS 3-1 (C) 4.1 21:38:27 10° NW 21:46:04 78° WSW 21:49:24 42° SSE
Cosmos 1707 Rocket 4.5 21:42:12 10° N 21:45:57 36° ENE 21:45:57 36° ENE
Cosmos 292 Rocket 4.4 21:41:58 10° NNW 21:46:31 45° WSW 21:47:10 42° SW
IRIDIUM 106 4.2 21:42:34 10° N 21:47:49 82° E 21:48:29 68° SSE
Cosmos 1048 Rocket 3.8 21:48:39 71° SSE 21:49:06 78° ESE 21:54:15 10° NNE
ALOS 2 4.0 21:59:22 28° ENE 21:59:22 28° ENE 22:03:00 10° N
COSMOS 2487 3.9 22:00:10 36° NNW 22:00:10 36° NNW 22:02:40 10° N
Cosmos 972 Rocket 4.2 21:59:17 45° SW 22:00:43 65° WNW 22:05:42 10° NNE
USA 229 DEB 3.9 21:54:35 10° NW 22:02:00 88° NE 22:04:27 48° SE
Cosmos 1805 Rocket 3.6 22:02:11 75° WNW 22:02:11 75° WNW 22:06:31 10° N
USA 229 3.9 21:54:41 10° NW 22:02:06 87° NE 22:04:33 48° SE
Cosmos 2360 Rocket 3.5 21:59:42 10° NW 22:04:23 27° WSW 22:05:41 25° SW
Cosmos 2084 Rocket 4.3 22:05:19 10° NNW 22:09:17 41° NE 22:09:17 41° NE
USA 267 3.1 22:06:19 10° NE 22:12:51 70° SE 22:14:47 47° SSW
Cosmos 1980 4.1 22:11:07 10° NNW 22:16:38 50° ENE 22:17:31 46° E
NOSS 0 Rocket 3.9 22:11:36 10° NNW 22:17:51 74° ENE 22:18:54 61° ESE
NOSS 3-1 (A) 4.1 22:14:55 10° NW 22:22:33 76° WSW 22:25:00 51° SSE
COSMOS 2455 3.7 22:17:53 15° WSW 22:22:34 47° NW 22:28:23 10° NNE
Meteor 1-20 Rocket 4.3 22:23:03 59° SW 22:23:56 70° WNW 22:29:39 10° N
Lacrosse 5 2.8 22:25:49 38° ENE 22:25:49 38° ENE 22:29:01 10° NE
Nadezhda 2 Rocket 4.4 22:23:24 62° SSW 22:24:36 87° W 22:31:04 10° N
Cosmos 2333 Rocket 3.0 22:20:49 10° NW 22:26:00 38° WSW 22:26:23 38° WSW
Cosmos 1452 Rocket 4.3 22:21:12 10° NW 22:26:05 40° WSW 22:26:16 40° WSW
COBE Rocket 4.0 22:26:51 65° WNW 22:26:51 65° WNW 22:31:13 10° NNW
BREEZE-M R/B 3.4 22:27:32 10° W 22:31:56 46° NE 22:35:33 10° ENE
Cosmos 2297 Rocket 2.6 22:32:07 48° E 22:32:07 48° E 22:36:57 10° NE
Sich 1 3.9 22:34:11 43° WNW 22:34:11 43° WNW 22:38:05 10° N
Cosmos 1244 Rocket 4.4 22:34:47 63° SW 22:35:46 77° W 22:42:01 10° N
Cosmos 2237 Rocket 2.2 22:33:24 10° NNW 22:39:06 69° ENE 22:39:29 66° E
Cosmos 1633 Rocket 3.6 22:44:04 55° NNW 22:44:04 55° NNW 22:47:33 10° N
Cosmos 2227 Rocket 2.7 22:44:30 45° E 22:44:30 45° E 22:49:09 10° NE
USA 234 3.6 22:42:59 31° E 22:46:13 63° NNE 22:52:41 10° NW
Cosmos 1666 Rocket 4.3 22:50:45 48° NW 22:50:45 48° NW 22:54:33 10° N
Cosmos 1331 Rocket 4.4 22:45:52 10° NNW 22:50:32 51° W 22:50:32 51° W
Cosmos 2219 Rocket 3.5 22:51:43 10° NW 22:56:08 26° W 22:56:08 26° W
NOSS 2-2 (E) 4.4 22:54:14 10° NW 22:59:50 89° NE 23:00:50 68° SE
SL-16 R/B 3.0 23:03:10 10° NNW 23:08:35 43° ENE 23:09:38 39° E
ATLAS 5 CENTAUR R/B 3.2 23:09:54 10° NW 23:14:35 38° WSW 23:14:35 38° WSW
Intercosmos 25 Rocket 4.5 23:24:02 47° NE 23:24:02 47° NE 23:28:31 10° NNE
COSMOS 2428 4.5 23:20:02 10° NW 23:23:31 19° W 23:23:31 19° W
NOSS 2-2 (C) 4.4 23:19:16 10° NW 23:24:48 77° SW 23:25:11 74° SSW
Meteor 2-4 Rocket 4.0 23:19:09 10° NNW 23:24:56 56° W 23:25:00 56° W
Cosmos 1666 4.4 23:26:25 31° NNW 23:26:25 31° NNW 23:28:45 10° N
Meteor 1-11 Rocket 3.8 23:25:58 64° E 23:25:58 64° E 23:31:12 10° NNE
Cosmos 1703 Rocket 4.4 23:26:23 10° N 23:29:38 49° N 23:29:38 49° N
Cosmos 1709 Rocket 3.8 23:30:39 76° SSE 23:31:11 86° E 23:37:36 10° N
PSLV R/B 4.2 23:30:09 10° NNE 23:34:07 59° NE 23:34:07 59° NE
ALOS 2 4.3 23:36:46 25° WNW 23:36:46 25° WNW 23:39:20 10° NW
Cosmos 1992 Rocket 4.0 23:31:50 10° NNW 23:36:41 76° N 23:36:41 76° N
Cosmos 909 Rocket 4.2 23:36:14 63° SW 23:37:28 84° NW 23:45:12 10° NNE
Cosmos 1745 Rocket 4.4 23:39:17 46° WSW 23:40:08 50° WNW 23:46:15 10° N
Cosmos 2219 3.6 23:42:22 53° W 23:43:01 56° WNW 23:48:43 10° NNE
CZ-2D R/B 4.0 23:41:21 10° NE 23:45:00 18° E 23:45:32 18° E
Cosmos 1066 Rocket 4.1 23:42:40 10° N 23:48:35 86° W 23:48:43 85° SW
Timation 1 Rocket 4.4 23:51:21 62° W 23:51:59 67° WNW 23:57:59 10° NNE
Meteor 1-13 Rocket 4.2 23:46:51 10° NNW 23:52:26 68° W 23:52:26 68° W
Cosmos 1241 Rocket 4.4 23:52:43 74° SSW 23:53:23 86° ESE 23:59:56 10° NE
